Llano, TX

8:27 PM CST on December 09, 2016 (GMT -0600)
Llano

Weather History for KAQO - August, 2014

Change the Weather History Date:

Wednesday, August 13, 2014

  Actual Average (KBMQ) Record (KBMQ)
Temperature  
Mean Temperature 79 °F -  
Max Temperature 96 °F 92 °F 102 °F (2015)
Min Temperature 62 °F 71 °F 62 °F (2004)
Cooling Degree Days 14    
Growing Degree Days 29 (Base 50)    
Moisture  
Dew Point 60 °F    
Average Humidity 56    
Maximum Humidity 94    
Minimum Humidity 27    
Precipitation  
Precipitation 0.00 in - - ()
Sea Level Pressure  
Sea Level Pressure 30.11 in    
Wind  
Wind Speed 2 mph (East)    
Max Wind Speed 12 mph    
Max Gust Speed -    
Visibility 10 miles    
Events      
Averages and records for this station are not official NWS values.
T = Trace of Precipitation, MM = Missing Value Source: NWS Daily Summary

Daily Weather History Graph

Daily Weather History Graph

Search for Another Location

Airport or City:

Trip Planner

Search our weather history database for the weather conditions in past years. The results will help you decide how hot, cold, wet, or windy it might be!

Date:

Astronomy

Aug. 13, 2014 Rise Set
Actual Time 6:59 AM CDT 8:18 PM CDT
Civil Twilight 6:34 AM CDT 8:44 PM CDT
Nautical Twilight 6:03 AM CDT 9:14 PM CDT
Astronomical Twilight 5:32 AM CDT 9:45 PM CDT
Moon 10:24 PM CDT (8/13) 10:12 AM CDT (8/13)
Length of Visible Light 14h 09m
Length of Day
13h 19m
Waning Gibbous, 87% of the Moon is Illuminated
Aug 13
Waning Gibbous
Aug 17
Last Quarter
Aug 25
New
Sep 2
First Quarter
Sep 8
Full

Hourly Weather History & Observations

Time (CDT) Temp. Heat Index Dew Point Humidity Pressure Visibility Wind Dir Wind Speed Gust Speed Precip Events Conditions
12:15 AM 73.4 °F - 69.8 °F 88% 30.11 in 10.0 mi Calm Calm - N/A   Clear
12:35 AM 73.4 °F - 68.0 °F 83% 30.11 in 10.0 mi Calm Calm - N/A   Clear
12:55 AM 71.6 °F - 68.0 °F 88% 30.12 in 10.0 mi Calm Calm - N/A   Clear
1:15 AM 71.6 °F - 68.0 °F 88% 30.12 in 10.0 mi Calm Calm - N/A   Clear
1:35 AM 71.6 °F - 66.2 °F 83% 30.12 in 10.0 mi North 3.5 mph - N/A   Clear
1:55 AM 68.0 °F - 64.4 °F 88% 30.11 in 10.0 mi Calm Calm - N/A   Clear
2:15 AM 69.8 °F - 64.4 °F 83% 30.11 in 10.0 mi Calm Calm - N/A   Clear
2:35 AM 66.2 °F - 62.6 °F 88% 30.11 in 10.0 mi Calm Calm - N/A   Clear
2:55 AM 68.0 °F - 62.6 °F 83% 30.11 in 10.0 mi Calm Calm - N/A   Clear
3:15 AM 66.2 °F - 62.6 °F 88% 30.10 in 10.0 mi Calm Calm - N/A   Clear
3:35 AM 64.4 °F - 60.8 °F 88% 30.10 in 10.0 mi Calm Calm - N/A   Clear
3:55 AM 66.2 °F - 60.8 °F 83% 30.10 in 10.0 mi Calm Calm - N/A   Clear
4:15 AM 66.2 °F - 60.8 °F 83% 30.11 in 10.0 mi Calm Calm - N/A   Clear
4:35 AM 66.2 °F - 60.8 °F 83% 30.11 in 10.0 mi Calm Calm - N/A   Clear
4:55 AM 64.4 °F - 60.8 °F 88% 30.11 in 10.0 mi Calm Calm - N/A   Clear
5:15 AM 64.4 °F - 60.8 °F 88% 30.11 in 10.0 mi Calm Calm - N/A   Clear
5:35 AM 64.4 °F - 60.8 °F 88% 30.11 in 10.0 mi Calm Calm - N/A   Clear
5:55 AM 64.4 °F - 60.8 °F 88% 30.11 in 10.0 mi Calm Calm - N/A   Clear
6:15 AM 64.4 °F - 60.8 °F 88% 30.12 in 10.0 mi Calm Calm - N/A   Clear
6:35 AM 62.6 °F - 60.8 °F 94% 30.13 in 10.0 mi Calm Calm - N/A   Clear
6:55 AM 62.6 °F - 59.0 °F 88% 30.13 in 10.0 mi Calm Calm - N/A   Clear
7:35 AM 64.4 °F - 60.8 °F 88% 30.14 in 10.0 mi Calm Calm - N/A   Clear
7:55 AM 66.2 °F - 62.6 °F 88% 30.15 in 10.0 mi Calm Calm - N/A   Clear
8:15 AM 69.8 °F - 60.8 °F 73% 30.15 in 10.0 mi Calm Calm - N/A   Clear
8:35 AM 73.4 °F - 60.8 °F 65% 30.16 in 10.0 mi Calm Calm - N/A   Clear
8:55 AM 75.2 °F - 60.8 °F 61% 30.16 in 10.0 mi Calm Calm - N/A   Clear
9:35 AM 78.8 °F - 59.0 °F 51% 30.17 in 10.0 mi East 3.5 mph - N/A   Clear
10:15 AM 82.4 °F 82.0 °F 57.2 °F 42% 30.16 in 10.0 mi ESE 3.5 mph - N/A   Clear
10:35 AM 84.2 °F 83.5 °F 57.2 °F 40% 30.16 in 10.0 mi SE 4.6 mph - N/A   Clear
10:55 AM 84.2 °F 83.5 °F 57.2 °F 40% 30.16 in 10.0 mi Calm Calm - N/A   Clear
11:15 AM 86.0 °F 84.9 °F 57.2 °F 37% 30.16 in 10.0 mi SE 5.8 mph - N/A   Clear
11:35 AM 89.6 °F 88.1 °F 57.2 °F 33% 30.16 in 10.0 mi SE 4.6 mph - N/A   Clear
11:55 AM 89.6 °F 87.7 °F 55.4 °F 31% 30.16 in 10.0 mi Calm Calm - N/A   Clear
12:15 PM 89.6 °F 88.1 °F 57.2 °F 33% 30.15 in 10.0 mi East 3.5 mph - N/A   Clear
12:35 PM 89.6 °F 87.7 °F 55.4 °F 31% 30.14 in 10.0 mi NNE 4.6 mph - N/A   Clear
12:55 PM 89.6 °F 88.1 °F 57.2 °F 33% 30.14 in 10.0 mi SE 4.6 mph - N/A   Clear
1:15 PM 91.4 °F 89.9 °F 57.2 °F 31% 30.13 in 10.0 mi NE 8.1 mph - N/A   Clear
1:35 PM 93.2 °F 91.9 °F 57.2 °F 30% 30.13 in 10.0 mi East 5.8 mph - N/A   Partly Cloudy
1:55 PM 93.2 °F 91.9 °F 57.2 °F 30% 30.11 in 10.0 mi East 8.1 mph - N/A   Clear
2:15 PM 93.2 °F 91.9 °F 57.2 °F 30% 30.11 in 10.0 mi East 3.5 mph - N/A   Clear
2:35 PM 95.0 °F 93.7 °F 57.2 °F 28% 30.10 in 10.0 mi East 8.1 mph - N/A   Clear
2:55 PM 95.0 °F 93.7 °F 57.2 °F 28% 30.10 in 10.0 mi NE 6.9 mph - N/A   Clear
3:15 PM 96.8 °F 95.8 °F 57.2 °F 27% 30.09 in 10.0 mi East 4.6 mph - N/A   Clear
3:35 PM 95.0 °F 93.7 °F 57.2 °F 28% 30.08 in 10.0 mi ENE 8.1 mph - N/A   Clear
3:55 PM 95.0 °F 93.7 °F 57.2 °F 28% 30.07 in 10.0 mi Calm Calm - N/A   Clear
4:15 PM 95.0 °F 93.7 °F 57.2 °F 28% 30.06 in 10.0 mi Calm Calm - N/A   Clear
4:35 PM 96.8 °F 95.8 °F 57.2 °F 27% 30.06 in 10.0 mi ENE 10.4 mph - N/A   Clear
5:15 PM 96.8 °F 95.8 °F 57.2 °F 27% 30.05 in 10.0 mi NE 8.1 mph - N/A   Clear
5:35 PM 96.8 °F 95.8 °F 57.2 °F 27% 30.04 in 10.0 mi ENE 3.5 mph - N/A   Clear
5:55 PM 96.8 °F 95.8 °F 57.2 °F 27% 30.04 in 10.0 mi ENE 11.5 mph - N/A   Clear
6:15 PM 95.0 °F 93.7 °F 57.2 °F 28% 30.04 in 10.0 mi ENE 6.9 mph - N/A   Clear
6:35 PM 95.0 °F 93.7 °F 57.2 °F 28% 30.04 in 10.0 mi ESE 9.2 mph - N/A   Clear
6:55 PM 93.2 °F 91.9 °F 57.2 °F 30% 30.04 in 10.0 mi East 8.1 mph - N/A   Clear
7:15 PM 93.2 °F 91.9 °F 57.2 °F 30% 30.03 in 10.0 mi East 9.2 mph - N/A   Clear
7:55 PM 91.4 °F 89.9 °F 57.2 °F 31% 30.05 in 10.0 mi ENE 4.6 mph - N/A   Clear
8:35 PM 87.8 °F 86.5 °F 57.2 °F 35% 30.05 in 10.0 mi ENE 4.6 mph - N/A   Clear
8:55 PM 87.8 °F 86.5 °F 57.2 °F 35% 30.05 in 10.0 mi ENE 5.8 mph - N/A   Clear
11:15 PM 78.8 °F - 60.8 °F 54% 30.09 in 10.0 mi Calm Calm - N/A   Clear
11:35 PM 77.0 °F - 60.8 °F 57% 30.08 in 10.0 mi Calm Calm - N/A   Clear
11:55 PM 75.2 °F - 62.6 °F 65% 30.08 in 10.0 mi Calm Calm - N/A   Clear